Time,TemperatureF,DewpointF,PressureIn,WindDirection,WindDirectionDegrees,WindSpeedMPH,WindSpeedGustMPH,Humidity,HourlyPrecipIn,Conditions,Clouds,dailyrainin,SoftwareType,DateUTC
2013-02-02 00:11:00,10.7,5.0,30.23,WNW,300,0.0,2.0,79,0.00,,,0.00,weatherlink.com 1.10,2013-02-02 05:11:00,
2013-02-02 00:26:00,10.8,6.0,30.24,West,281,0.0,4.0,79,0.00,,,0.00,weatherlink.com 1.10,2013-02-02 05:26:00,
2013-02-02 00:41:00,10.7,5.0,30.24,West,276,0.0,3.0,79,0.00,,,0.00,weatherlink.com 1.10,2013-02-02 05:41:00,
2013-02-02 00:56:00,10.5,5.0,30.24,West,279,1.0,4.0,79,0.00,,,0.00,weatherlink.com 1.10,2013-02-02 05:56:00,
2013-02-02 01:11:00,10.3,5.0,30.24,West,279,1.0,4.0,80,0.00,,,0.00,weatherlink.com 1.10,2013-02-02 06:11:00,
2013-02-02 01:26:00,9.6,5.0,30.24,West,279,0.0,0.0,81,0.00,,,0.00,weatherlink.com 1.10,2013-02-02 06:26:00,
2013-02-02 01:41:00,9.7,6.0,30.25,West,269,0.0,1.0,83,0.00,,,0.00,weatherlink.com 1.10,2013-02-02 06:41:00,
2013-02-02 01:57:00,10.0,6.0,30.25,West,269,0.0,1.0,82,0.00,,,0.00,weatherlink.com 1.10,2013-02-02 06:57:00,
2013-02-02 02:12:00,9.2,5.0,30.25,West,269,0.0,0.0,81,0.00,,,0.00,weatherlink.com 1.10,2013-02-02 07:12:00,
2013-02-02 02:26:00,8.5,4.0,30.25,West,269,0.0,1.0,83,0.00,,,0.00,weatherlink.com 1.10,2013-02-02 07:26:00,
2013-02-02 02:56:00,7.6,4.0,30.25,West,269,1.0,1.0,85,0.00,,,0.00,weatherlink.com 1.10,2013-02-02 07:56:00,
2013-02-02 03:12:00,8.1,5.0,30.25,West,269,0.0,1.0,87,0.00,,,0.00,weatherlink.com 1.10,2013-02-02 08:12:00,
2013-02-02 03:27:00,8.6,6.0,30.25,West,269,0.0,0.0,88,0.00,,,0.00,weatherlink.com 1.10,2013-02-02 08:27:00,
2013-02-02 03:42:00,9.0,6.0,30.26,West,269,0.0,1.0,87,0.00,,,0.00,weatherlink.com 1.10,2013-02-02 08:42:00,
2013-02-02 03:57:00,8.9,5.0,30.25,West,269,0.0,0.0,85,0.00,,,0.00,weatherlink.com 1.10,2013-02-02 08:57:00,
2013-02-02 04:12:00,8.0,4.0,30.26,West,269,0.0,1.0,85,0.00,,,0.00,weatherlink.com 1.10,2013-02-02 09:12:00,
2013-02-02 04:27:00,7.9,5.0,30.25,West,269,0.0,1.0,87,0.00,,,0.00,weatherlink.com 1.10,2013-02-02 09:27:00,
2013-02-02 04:42:00,7.6,5.0,30.25,SSW,200,0.0,2.0,87,0.00,,,0.00,weatherlink.com 1.10,2013-02-02 09:42:00,
2013-02-02 04:57:00,7.2,4.0,30.24,SSW,200,0.0,1.0,87,0.00,,,0.00,weatherlink.com 1.10,2013-02-02 09:57:00,
2013-02-02 05:12:00,6.6,4.0,30.25,South,183,0.0,2.0,87,0.00,,,0.00,weatherlink.com 1.10,2013-02-02 10:12:00,
2013-02-02 05:27:00,6.9,4.0,30.24,SE,128,1.0,2.0,88,0.00,,,0.00,weatherlink.com 1.10,2013-02-02 10:27:00,
2013-02-02 05:42:00,7.4,4.0,30.24,ESE,113,3.0,4.0,87,0.00,,,0.00,weatherlink.com 1.10,2013-02-02 10:42:00,
2013-02-02 05:57:00,8.5,5.0,30.25,ESE,113,1.0,3.0,87,0.00,,,0.00,weatherlink.com 1.10,2013-02-02 10:57:00,
2013-02-02 06:12:00,8.9,6.0,30.24,ESE,113,3.0,3.0,88,0.00,,,0.00,weatherlink.com 1.10,2013-02-02 11:12:00,
2013-02-02 06:28:00,9.5,7.0,30.24,ESE,113,2.0,4.0,88,0.00,,,0.00,weatherlink.com 1.10,2013-02-02 11:28:00,
2013-02-02 06:42:00,10.1,8.0,30.25,ESE,113,0.0,1.0,89,0.00,,,0.00,weatherlink.com 1.10,2013-02-02 11:42:00,
2013-02-02 06:57:00,10.9,9.0,30.24,SE,131,4.0,5.0,90,0.00,,,0.00,weatherlink.com 1.10,2013-02-02 11:57:00,
2013-02-02 07:12:00,11.8,10.0,30.25,SE,132,2.0,4.0,90,0.00,,,0.00,weatherlink.com 1.10,2013-02-02 12:12:00,
2013-02-02 07:27:00,12.6,10.0,30.25,SE,141,0.0,4.0,89,0.00,,,0.00,weatherlink.com 1.10,2013-02-02 12:27:00,
2013-02-02 07:42:00,12.9,10.0,30.25,SE,136,0.0,4.0,88,0.00,,,0.00,weatherlink.com 1.10,2013-02-02 12:42:00,
2013-02-02 07:57:00,12.9,10.0,30.24,SSE,149,1.0,5.0,87,0.00,,,0.00,weatherlink.com 1.10,2013-02-02 12:57:00,
2013-02-02 08:12:00,12.8,10.0,30.25,SSE,149,0.0,2.0,87,0.00,,,0.00,weatherlink.com 1.10,2013-02-02 13:12:00,
2013-02-02 08:27:00,12.8,10.0,30.24,SSE,150,0.0,2.0,87,0.00,,,0.00,weatherlink.com 1.10,2013-02-02 13:27:00,
2013-02-02 08:42:00,13.4,10.0,30.24,SSE,150,0.0,2.0,87,0.00,,,0.00,weatherlink.com 1.10,2013-02-02 13:42:00,
2013-02-02 08:57:00,14.2,10.0,30.24,WSW,241,2.0,8.0,83,0.00,,,0.00,weatherlink.com 1.10,2013-02-02 13:57:00,
2013-02-02 09:12:00,14.7,10.0,30.24,SW,236,2.0,8.0,80,0.00,,,0.00,weatherlink.com 1.10,2013-02-02 14:12:00,
2013-02-02 09:27:00,15.3,10.0,30.23,SW,217,1.0,4.0,78,0.00,,,0.00,weatherlink.com 1.10,2013-02-02 14:27:00,
2013-02-02 09:42:00,15.5,9.0,30.23,WSW,255,3.0,12.0,76,0.00,,,0.00,weatherlink.com 1.10,2013-02-02 14:42:00,
2013-02-02 09:57:00,15.6,9.0,30.22,WNW,289,4.0,9.0,74,0.00,,,0.00,weatherlink.com 1.10,2013-02-02 14:57:00,
2013-02-02 10:12:00,15.8,9.0,30.22,WSW,257,5.0,8.0,74,0.00,,,0.00,weatherlink.com 1.10,2013-02-02 15:12:00,
2013-02-02 10:27:00,16.2,9.0,30.21,West,273,3.0,6.0,73,0.00,,,0.00,weatherlink.com 1.10,2013-02-02 15:27:00,
2013-02-02 10:43:00,16.6,9.0,30.21,West,267,1.0,5.0,71,0.00,,,0.00,weatherlink.com 1.10,2013-02-02 15:43:00,
2013-02-02 10:57:00,17.0,9.0,30.20,SSW,194,3.0,6.0,71,0.00,,,0.00,weatherlink.com 1.10,2013-02-02 15:57:00,
2013-02-02 11:13:00,17.1,9.0,30.20,West,272,2.0,6.0,71,0.00,,,0.00,weatherlink.com 1.10,2013-02-02 16:13:00,
2013-02-02 11:43:00,18.2,10.0,30.18,WSW,237,0.0,6.0,69,0.00,,,0.00,weatherlink.com 1.10,2013-02-02 16:43:00,
2013-02-02 11:58:00,18.3,9.0,30.17,West,264,4.0,8.0,68,0.00,,,0.00,weatherlink.com 1.10,2013-02-02 16:58:00,
2013-02-02 12:13:00,18.5,10.0,30.15,SW,229,3.0,10.0,70,0.00,,,0.00,weatherlink.com 1.10,2013-02-02 17:13:00,
2013-02-02 12:28:00,18.4,9.0,30.15,WNW,291,3.0,7.0,68,0.00,,,0.00,weatherlink.com 1.10,2013-02-02 17:28:00,
2013-02-02 12:43:00,18.5,10.0,30.14,WNW,291,1.0,9.0,69,0.00,,,0.00,weatherlink.com 1.10,2013-02-02 17:43:00,
2013-02-02 12:58:00,18.7,9.0,30.13,West,271,1.0,8.0,67,0.00,,,0.00,weatherlink.com 1.10,2013-02-02 17:58:00,
2013-02-02 13:13:00,19.1,10.0,30.13,SSW,210,8.0,9.0,69,0.00,,,0.00,weatherlink.com 1.10,2013-02-02 18:13:00,
2013-02-02 13:28:00,19.5,11.0,30.12,NW,315,3.0,8.0,69,0.00,,,0.00,weatherlink.com 1.10,2013-02-02 18:28:00,
2013-02-02 13:43:00,19.9,11.0,30.12,WSW,245,0.0,7.0,69,0.00,,,0.00,weatherlink.com 1.10,2013-02-02 18:43:00,
2013-02-02 13:58:00,19.3,11.0,30.12,West,275,5.0,11.0,70,0.00,,,0.00,weatherlink.com 1.10,2013-02-02 18:58:00,
2013-02-02 14:13:00,18.4,11.0,30.12,SW,235,3.0,11.0,74,0.00,,,0.00,weatherlink.com 1.10,2013-02-02 19:13:00,
2013-02-02 14:28:00,18.8,12.0,30.12,SW,230,1.0,8.0,75,0.00,,,0.00,weatherlink.com 1.10,2013-02-02 19:28:00,
2013-02-02 14:43:00,18.5,11.0,30.11,SW,234,4.0,9.0,71,0.00,,,0.00,weatherlink.com 1.10,2013-02-02 19:43:00,
2013-02-02 14:58:00,18.5,12.0,30.11,WSW,239,6.0,7.0,75,0.00,,,0.00,weatherlink.com 1.10,2013-02-02 19:58:00,
2013-02-02 15:13:00,18.3,11.0,30.11,SW,236,1.0,8.0,74,0.00,,,0.00,weatherlink.com 1.10,2013-02-02 20:13:00,
2013-02-02 15:28:00,18.3,12.0,30.11,South,189,0.0,5.0,76,0.00,,,0.00,weatherlink.com 1.10,2013-02-02 20:28:00,
2013-02-02 15:43:00,18.0,12.0,30.10,West,269,0.0,4.0,77,0.00,,,0.00,weatherlink.com 1.10,2013-02-02 20:43:00,
2013-02-02 15:58:00,17.8,12.0,30.10,West,263,2.0,4.0,78,0.00,,,0.00,weatherlink.com 1.10,2013-02-02 20:58:00,
2013-02-02 16:13:00,17.7,12.0,30.10,SW,230,0.0,4.0,78,0.00,,,0.00,weatherlink.com 1.10,2013-02-02 21:13:00,
2013-02-02 16:28:00,17.4,11.0,30.10,SW,230,0.0,3.0,77,0.00,,,0.00,weatherlink.com 1.10,2013-02-02 21:28:00,
2013-02-02 16:43:00,17.3,12.0,30.11,SW,231,0.0,1.0,79,0.00,,,0.00,weatherlink.com 1.10,2013-02-02 21:43:00,
2013-02-02 16:58:00,17.1,12.0,30.10,West,280,0.0,1.0,80,0.00,,,0.00,weatherlink.com 1.10,2013-02-02 21:58:00,
2013-02-02 17:13:00,16.8,12.0,30.10,West,280,0.0,1.0,81,0.00,,,0.00,weatherlink.com 1.10,2013-02-02 22:13:00,
2013-02-02 17:28:00,16.6,12.0,30.10,West,280,0.0,0.0,82,0.00,,,0.00,weatherlink.com 1.10,2013-02-02 22:28:00,
2013-02-02 17:43:00,16.2,12.0,30.10,West,280,0.0,0.0,83,0.00,,,0.00,weatherlink.com 1.10,2013-02-02 22:43:00,
2013-02-02 17:58:00,15.7,12.0,30.10,West,280,0.0,0.0,84,0.00,,,0.00,weatherlink.com 1.10,2013-02-02 22:58:00,
2013-02-02 18:13:00,15.2,12.0,30.10,West,280,0.0,0.0,85,0.00,,,0.00,weatherlink.com 1.10,2013-02-02 23:13:00,
2013-02-02 18:28:00,14.6,11.0,30.10,West,280,2.0,2.0,87,0.00,,,0.00,weatherlink.com 1.10,2013-02-02 23:28:00,
2013-02-02 18:43:00,14.6,12.0,30.10,SE,136,1.0,2.0,88,0.00,,,0.00,weatherlink.com 1.10,2013-02-02 23:43:00,
2013-02-02 18:58:00,14.8,12.0,30.10,SE,136,2.0,2.0,88,0.00,,,0.00,weatherlink.com 1.10,2013-02-02 23:58:00,
2013-02-02 19:13:00,14.9,12.0,30.10,SE,136,0.0,2.0,87,0.00,,,0.00,weatherlink.com 1.10,2013-02-03 00:13:00,
2013-02-02 19:28:00,15.0,12.0,30.10,SE,136,0.0,2.0,86,0.00,,,0.00,weatherlink.com 1.10,2013-02-03 00:28:00,
2013-02-02 19:44:00,15.1,12.0,30.11,SE,136,0.0,0.0,86,0.00,,,0.00,weatherlink.com 1.10,2013-02-03 00:44:00,
2013-02-02 19:59:00,15.4,12.0,30.11,SE,136,0.0,1.0,85,0.00,,,0.00,weatherlink.com 1.10,2013-02-03 00:59:00,
2013-02-02 20:13:00,15.4,12.0,30.10,SE,136,0.0,2.0,85,0.00,,,0.00,weatherlink.com 1.10,2013-02-03 01:13:00,
2013-02-02 20:28:00,15.6,12.0,30.11,SE,136,2.0,2.0,84,0.00,,,0.00,weatherlink.com 1.10,2013-02-03 01:28:00,
2013-02-02 20:44:00,15.9,12.0,30.10,SE,136,1.0,2.0,83,0.00,,,0.00,weatherlink.com 1.10,2013-02-03 01:44:00,
2013-02-02 20:59:00,16.1,12.0,30.10,SE,136,1.0,3.0,82,0.00,,,0.00,weatherlink.com 1.10,2013-02-03 01:59:00,
2013-02-02 21:13:00,16.0,11.0,30.10,SE,136,0.0,1.0,81,0.00,,,0.00,weatherlink.com 1.10,2013-02-03 02:13:00,
2013-02-02 21:28:00,15.8,11.0,30.10,SE,136,0.0,1.0,82,0.00,,,0.00,weatherlink.com 1.10,2013-02-03 02:28:00,
2013-02-02 21:43:00,15.8,11.0,30.10,SE,136,0.0,2.0,82,0.00,,,0.00,weatherlink.com 1.10,2013-02-03 02:43:00,
2013-02-02 21:58:00,15.7,11.0,30.10,SE,136,1.0,2.0,82,0.00,,,0.00,weatherlink.com 1.10,2013-02-03 02:58:00,
2013-02-02 22:13:00,15.5,11.0,30.09,SE,136,1.0,3.0,83,0.00,,,0.00,weatherlink.com 1.10,2013-02-03 03:13:00,
2013-02-02 22:28:00,15.7,11.0,30.09,SE,136,2.0,3.0,82,0.00,,,0.00,weatherlink.com 1.10,2013-02-03 03:28:00,
2013-02-02 22:43:00,15.4,11.0,30.09,SE,136,1.0,4.0,83,0.00,,,0.00,weatherlink.com 1.10,2013-02-03 03:43:00,
2013-02-02 22:58:00,14.9,11.0,30.09,SE,136,0.0,3.0,84,0.00,,,0.00,weatherlink.com 1.10,2013-02-03 03:58:00,
2013-02-02 23:13:00,14.7,11.0,30.09,SE,136,1.0,3.0,84,0.00,,,0.00,weatherlink.com 1.10,2013-02-03 04:13:00,
2013-02-02 23:28:00,14.0,10.0,30.09,SE,136,2.0,2.0,85,0.00,,,0.00,weatherlink.com 1.10,2013-02-03 04:28:00,
2013-02-02 23:43:00,12.6,9.0,30.09,ESE,121,3.0,4.0,85,0.00,,,0.00,weatherlink.com 1.10,2013-02-03 04:43:00,
2013-02-02 23:59:00,12.5,9.0,30.09,ESE,117,3.0,4.0,87,0.00,,,0.00,weatherlink.com 1.10,2013-02-03 04:59:00,